Regional Weather Roundup
Issued by NWS

Home | Current Version | Previous Version | Text Only | Print | Product List | Glossary Off
Versions: 1 2 3 4 5 6 7 8 9 10 11 12 13 14 15 16 17 18 19 20 21 22 23 24 25 26 27 28 29 30 31 32 33 34 35 36 37 38 39 40 41

000
ASUS45 KBOI 270710
RWRID
WEATHER ROUNDUP FOR IDAHO
NATIONAL WEATHER SERVICE BOISE ID
1200 AM MST SAT DEC 27 2014

NOTE: "FAIR" INDICATES FEW OR NO CLOUDS BELOW 12000 FEET
WITH NO SIGNIFICANT WEATHER AND/OR OBSTRUCTIONS TO VISIBILITY

IDZ012-014-270800-
SOUTHWEST IDAHO


CITY           SKY/WX    TMP DP  RH WIND       PRES   REMARKS
BOISE          CLEAR     22  17  81 SE5       30.32R WCI  16
CALDWELL       CLEAR     27  18  69 CALM      30.35R
MOUNTAIN HOME  CLEAR     24  19  81 NW7       30.29S WCI  16
$$

IDZ016-017-270800-
SOUTHCENTRAL IDAHO


CITY           SKY/WX    TMP DP  RH WIND       PRES   REMARKS
BURLEY         CLOUDY    25  19  78 W9        30.25R WCI  15
JEROME         CLEAR     20  17  88 SW3       30.26R
TWIN FALLS     CLEAR     22  13  68 S15       30.26R WCI   9
$$

IDZ019>023-270800-
SOUTHEAST IDAHO


CITY           SKY/WX    TMP DP  RH WIND       PRES   REMARKS
IDAHO FALLS    CLOUDY    15  12  88 SW10      30.22R WCI   2
POCATELLO      CLOUDY    20  18  92 W7        30.25R WCI  11
REXBURG        CLOUDY    16  16 100 SW5       30.21R WCI   9
$$

IDZ006-010-011-018-031-032-270800-
CENTRAL IDAHO MOUNTAINS


CITY           SKY/WX    TMP DP  RH WIND       PRES   REMARKS
MCCALL         CLOUDY    11   8  88 CALM      30.21R
HAILEY         PTCLDY    10   3  72 NW10      30.22R WCI  -3
STANLEY          N/A     -1  -7  75 S6        30.19R WCI -13
SALMON         PTCLDY    14  12  92 CALM      30.24S
CHALLIS        CLEAR      2  -1  88 CALM      30.22S
$$

IDZ002-004-006-007-026-270800-
NORTHERN IDAHO


CITY           SKY/WX    TMP DP  RH WIND       PRES   REMARKS
LEWISTON       CLEAR     28  24  85 SE5       30.32S WCI  23
LOWELL           N/A     33  31  92 CALM      30.36S
COEUR D`ALENE  PTCLDY    27  25  93 S6        30.25F WCI  20
MULLAN PASS    CLOUDY    19  14  81 VRB3      30.08S HAZE
$$



USA.gov is the U.S. government's official web portal to all federal, state and local government web resources and services.